Regional Weather Roundup
Issued by NWS

Home | Current Version | Previous Version | Graphics & Text | Print | Product List | Glossary On
Versions: 1 2 3 4 5 6 7 8 9 10 11 12 13 14 15 16 17 18 19 20 21 22 23 24 25 26 27 28 29 30 31 32 33 34 35 36 37 38 39 40 41 42 43 44 45 46 47 48 49 50
000
ASUS43 KOAX 050402
RWRNE

WEATHER ROUNDUP FOR NEBRASKA
NATIONAL WEATHER SERVICE OMAHA NE
1000 PM CST WED MAR 04 2015

NOTES: SATELLITE DATA IS BEING USED TO AUGMENT CLOUD COVER ABOVE
       12000 FEET.
       "FAIR" INDICATES FEW OR NO CLOUDS BELOW 12,000 FEET WITH NO
       SIGNIFICANT WEATHER AND/OR OBSTRUCTIONS TO VISIBILITY.

  * THESE STATIONS DO NOT REPORT WEATHER SUCH AS RAIN...SNOW OR FOG.

NEZ001>004-019>022-054>056-050500-
NEBRASKA PANHANDLE

CITY           SKY/WX    TMP DP  RH WIND       PRES   REMARKS
SCOTTSBLUFF    CLEAR     13   4  67 CALM      30.23R
ALLIANCE       CLEAR      7   0  73 SW7       30.22R WCI  -5
CHADRON        CLEAR      2  -2  83 W3        30.26R
KIMBALL        CLEAR     11   4  74 CALM      30.17S
SIDNEY         CLEAR      6   0  76 SW9       30.23R WCI  -8
$$

NEZ057>060-069>072-079>082-050500-
SOUTHWEST NEBRASKA

CITY           SKY/WX    TMP DP  RH WIND       PRES   REMARKS
NORTH PLATTE   CLEAR     11  -1  58 E5        30.33R WCI   3
IMPERIAL         N/A     18   6  59 SW3       30.30R
LEXINGTON      CLEAR     10   4  75 CALM      30.36R
MCCOOK         CLEAR     19   6  57 W3        30.33R
$$

NEZ005>010-023>029-035>040-094-050500-
NORTH CENTRAL NEBRASKA

CITY           SKY/WX    TMP DP  RH WIND       PRES   REMARKS
VALENTINE      CLEAR      3  -2  79 CALM      30.33R
AINSWORTH      CLEAR      7   0  71 CALM      30.33R
BROKEN BOW     CLEAR     10  -1  61 N5        30.35R WCI   2
ORD            CLEAR      9  -3  58 CALM      30.39R
$$

NEZ041-046>049-061>064-073>077-083>087-050500-
SOUTH CENTRAL NEBRASKA

CITY           SKY/WX    TMP DP  RH WIND       PRES   REMARKS
GRAND ISLAND   CLEAR      8  -1  66 N7        30.41R WCI  -3
AURORA         CLEAR     10   0  65 NE7       30.39R WCI  -2
HASTINGS       CLEAR     13   1  59 NE8       30.38R WCI   2
HEBRON         PTCLDY    16   2  54 NE6       30.43R WCI   8
HOLDREGE       CLEAR     10   0  64 NE6       30.35R WCI   0
KEARNEY *      CLEAR     10   1  67 NE12      30.38R WCI  -4
$$

NEZ011>018-030>034-042>045-050500-
NORTHEAST NEBRASKA

CITY           SKY/WX    TMP DP  RH WIND       PRES   REMARKS
NORFOLK        CLEAR      7  -5  57 N5        30.42S WCI  -2
ALBION         PTCLDY     8  -4  58 N5        30.41R WCI  -1
BLAIR          CLEAR     12  -2  53 N13       30.42R WCI  -3
COLUMBUS *     CLEAR      7  -9  47 N5        30.44R WCI  -2
FREMONT        CLEAR     12  -3  52 N7        30.45R WCI   1
TEKAMAH        CLEAR     10  -3  55 N14       30.47S WCI  -6
$$

NEZ050>053-065>068-078-088>093-050500-
SOUTHEAST NEBRASKA

CITY           SKY/WX    TMP DP  RH WIND       PRES   REMARKS
LINCOLN        CLEAR     13  -1  54 N12       30.46R WCI  -1
OMAHA EPPLEY   CLEAR     12   0  58 N9        30.46R WCI   0
BEATRICE       CLEAR     16   1  52 NE10      30.44R WCI   4
FALLS CITY     PTCLDY    17   0  47 N7        30.44R WCI   8
NEBRASKA CITY  CLEAR     16  -4  42 NE6       30.44R WCI   7
$$

NEZ044-045-051>053-067-050500-
OMAHA AREA

CITY           SKY/WX    TMP DP  RH WIND       PRES   REMARKS
OMAHA EPPLEY   CLEAR     12   0  58 N9        30.46R WCI   0
BLAIR          CLEAR     12  -2  53 N13       30.42R WCI  -3
FREMONT        CLEAR     12  -3  52 N7        30.45R WCI   1
OFFUTT AFB     CLEAR     15  -1  48 N7        30.45R WCI   5
WAHOO          FAIR      11  -2  55 N10       30.45R WCI  -2
$$



USA.gov is the U.S. government's official web portal to all federal, state and local government web resources and services.